User: anonymous   Login
Location: Unspecified
(0.0000°N, 0.0000°E)
Time: 21:10:36
(UTC+00:00)
Language:

USA 82 - Orbit

View from above orbital plane
View from above orbital plane
View from above satellite
View from above satellite

Ground track
Ground track

The orbit data is extracted from the following two-line orbital elements,

1 22009U 92037A   20058.61329906 -.00000184  00000-0  00000+0 0  9998
2 22009  12.6939  25.8010 0013761 337.1435 196.1233  0.98814441  2382
Epoch (UTC): 27 February 2020 14:43:09
Eccentricity: 0.0013761
inclination: 12.6939°
perigee height: 36141 km
apogee height: 36258 km
right ascension of ascending node: 25.8010°
argument of perigee: 337.1435°
revolutions per day: 0.98814441
mean anomaly at epoch: 196.1233°
orbit number at epoch: 238

The dashed part of the orbit path shows where the satellite is in the earth's shadow,  

DLR